START_TIME,STEP,MOV.,A39,t_acc.,A33,t_acc.,P32,t_acc.,P31,t_acc.
1979-07-16 15:00:22.760 ,0,0,0.,0.8,0.,0.8,0.,0.8,25.,0.8
1979-07-16 15:00:23.560 ,0,0,0.,0.8,0.,0.8,0.,0.8,18.,0.8
1979-07-16 15:00:24.360 ,0,0,0.,0.8,0.,0.8,0.,0.8,24.,0.8
1979-07-16 15:00:25.160 ,0,0,0.,0.8,0.,0.8,0.,0.8,24.,0.8
1979-07-16 15:00:25.960 ,0,0,0.,0.8,0.,0.8,0.,0.8,23.,0.8
1979-07-16 15:00:26.760 ,0,0,0.,0.8,1.,0.8,0.,0.8,26.,0.8
1979-07-16 15:00:27.560 ,0,0,0.,0.8,0.,0.8,0.,0.8,26.,0.8
1979-07-16 15:00:28.360 ,0,0,0.,0.8,0.,0.8,0.,0.8,25.,0.8
1979-07-16 15:00:29.160 ,0,0,0.,0.8,0.,0.8,0.,0.8,31.,0.8
1979-07-16 15:00:29.960 ,0,0,0.,0.8,0.,0.8,0.,0.8,43.,0.8
1979-07-16 15:00:30.760 ,0,0,1.,0.8,0.,0.8,0.,0.8,29.,0.8
1979-07-16 15:00:31.560 ,0,0,1.,0.8,0.,0.8,0.,0.8,27.,0.8
1979-07-16 15:00:32.360 ,0,0,0.,0.8,0.,0.8,0.,0.8,25.,0.8
1979-07-16 15:00:33.160 ,0,0,0.,0.8,0.,0.8,0.,0.8,21.,0.8
1979-07-16 15:00:33.960 ,0,0,0.,0.8,0.,0.8,0.,0.8,17.,0.8
1979-07-16 15:00:34.760 ,0,0,0.,0.8,0.,0.8,0.,0.8,32.,0.8
1979-07-16 15:00:35.560 ,0,0,0.,0.8,0.,0.8,0.,0.8,29.,0.8
1979-07-16 15:00:36.360 ,0,0,0.,0.8,0.,0.8,0.,0.8,21.,0.8
1979-07-16 15:00:37.160 ,0,0,0.,0.8,0.,0.8,0.,0.8,31.,0.8
1979-07-16 15:00:37.960 ,0,0,0.,0.8,0.,0.8,0.,0.8,16.,0.8
1979-07-16 15:00:38.760 ,0,0,1.,0.8,0.,0.8,0.,0.8,17.,0.8
1979-07-16 15:00:39.560 ,0,0,1.,0.8,0.,0.8,0.,0.8,20.,0.8
1979-07-16 15:00:40.360 ,0,0,0.,0.8,0.,0.8,0.,0.8,33.,0.8
1979-07-16 15:00:41.160 ,0,0,1.,0.8,0.,0.8,0.,0.8,22.,0.8
1979-07-16 15:00:41.960 ,0,0,0.,0.8,0.,0.8,0.,0.8,29.,0.8
1979-07-16 15:00:42.760 ,0,0,0.,0.8,0.,0.8,0.,0.8,24.,0.8
1979-07-16 15:00:43.560 ,0,0,,0,,0,,0,,0
1979-07-16 15:00:44.360 ,0,0,,0,,0,,0,,0
1979-07-16 15:00:45.160 ,0,0,0.,0.8,0.,0.8,0.,0.8,27.,0.8
1979-07-16 15:00:45.960 ,0,0,0.,0.8,0.,0.8,0.,0.8,14.,0.8
1979-07-16 15:00:46.760 ,2,0,0.,0.8,0.,0.8,0.,0.8,18.,0.8
1979-07-16 15:00:47.560 ,2,0,0.,0.8,0.,0.8,0.,0.8,24.,0.8
1979-07-16 15:00:48.360 ,2,0,1.,0.8,0.,0.8,0.,0.8,19.,0.8
1979-07-16 15:00:49.160 ,2,0,0.,0.8,0.,0.8,0.,0.8,21.,0.8
1979-07-16 15:00:49.960 ,2,0,0.,0.8,0.,0.8,0.,0.8,16.,0.8
1979-07-16 15:00:50.760 ,2,0,0.,0.8,0.,0.8,0.,0.8,20.,0.8
1979-07-16 15:00:51.560 ,2,0,0.,0.8,0.,0.8,0.,0.8,24.,0.8
1979-07-16 15:00:52.360 ,2,0,0.,0.8,0.,0.8,0.,0.8,15.,0.8
1979-07-16 15:00:53.160 ,2,0,1.,0.8,0.,0.8,0.,0.8,18.,0.8
1979-07-16 15:00:53.960 ,2,0,2.,0.8,0.,0.8,0.,0.8,22.,0.8
1979-07-16 15:00:54.760 ,2,0,4.,0.8,0.,0.8,0.,0.8,16.,0.8
1979-07-16 15:00:55.560 ,2,0,2.,0.8,0.,0.8,0.,0.8,21.,0.8
1979-07-16 15:00:56.360 ,2,0,6.,0.8,0.,0.8,0.,0.8,22.,0.8
1979-07-16 15:00:57.160 ,2,0,5.,0.8,0.,0.8,0.,0.8,14.,0.8
1979-07-16 15:00:57.960 ,2,0,1.,0.8,0.,0.8,0.,0.8,15.,0.8
1979-07-16 15:00:58.760 ,2,0,3.,0.8,0.,0.8,0.,0.8,18.,0.8
1979-07-16 15:00:59.560 ,2,0,2.,0.8,0.,0.8,0.,0.8,12.,0.8
1979-07-16 15:01:00.360 ,2,0,4.,0.8,0.,0.8,0.,0.8,22.,0.8
1979-07-16 15:01:01.160 ,2,0,1.,0.8,0.,0.8,0.,0.8,23.,0.8
1979-07-16 15:01:01.960 ,2,0,4.,0.8,0.,0.8,0.,0.8,19.,0.8
1979-07-16 15:01:02.760 ,2,0,4.,0.8,0.,0.8,0.,0.8,8.,0.8
1979-07-16 15:01:03.560 ,2,0,1.,0.8,0.,0.8,0.,0.8,7.,0.8
1979-07-16 15:01:04.360 ,2,0,4.,0.8,0.,0.8,0.,0.8,11.,0.8
1979-07-16 15:01:05.160 ,2,0,3.,0.8,0.,0.8,0.,0.8,23.,0.8
1979-07-16 15:01:05.960 ,2,0,1.,0.8,0.,0.8,0.,0.8,19.,0.8
1979-07-16 15:01:06.760 ,2,0,5.,0.8,0.,0.8,0.,0.8,13.,0.8
1979-07-16 15:01:07.560 ,2,0,4.,0.8,1.,0.8,0.,0.8,17.,0.8
1979-07-16 15:01:08.360 ,2,0,4.,0.8,0.,0.8,0.,0.8,19.,0.8
1979-07-16 15:01:09.160 ,2,0,4.,0.8,0.,0.8,0.,0.8,23.,0.8
1979-07-16 15:01:09.960 ,2,0,2.,0.8,0.,0.8,0.,0.8,28.,0.8
1979-07-16 15:01:10.760 ,2,0,0.,0.8,0.,0.8,0.,0.8,9.,0.8
1979-07-16 15:01:11.560 ,2,0,3.,0.8,0.,0.8,0.,0.8,8.,0.8
1979-07-16 15:01:12.360 ,2,0,6.,0.8,0.,0.8,0.,0.8,16.,0.8
1979-07-16 15:01:13.160 ,2,0,3.,0.8,0.,0.8,0.,0.8,17.,0.8
1979-07-16 15:01:13.960 ,2,0,6.,0.8,0.,0.8,0.,0.8,12.,0.8
1979-07-16 15:01:14.760 ,2,0,3.,0.8,0.,0.8,0.,0.8,15.,0.8
1979-07-16 15:01:15.560 ,2,0,3.,0.8,0.,0.8,0.,0.8,15.,0.8
1979-07-16 15:01:16.360 ,2,0,2.,0.8,0.,0.8,0.,0.8,18.,0.8
1979-07-16 15:01:17.160 ,2,0,5.,0.8,0.,0.8,0.,0.8,22.,0.8
1979-07-16 15:01:17.960 ,2,0,1.,0.8,0.,0.8,0.,0.8,11.,0.8
1979-07-16 15:01:18.760 ,2,0,3.,0.8,0.,0.8,0.,0.8,20.,0.8
1979-07-16 15:01:19.560 ,2,0,3.,0.8,0.,0.8,0.,0.8,17.,0.8
1979-07-16 15:01:20.360 ,2,0,3.,0.8,0.,0.8,0.,0.8,16.,0.8
1979-07-16 15:01:21.160 ,2,0,4.,0.8,0.,0.8,0.,0.8,13.,0.8
1979-07-16 15:01:21.960 ,2,0,4.,0.8,0.,0.8,0.,0.8,14.,0.8
1979-07-16 15:01:22.760 ,2,0,3.,0.8,0.,0.8,0.,0.8,13.,0.8
1979-07-16 15:01:23.560 ,2,0,6.,0.8,0.,0.8,0.,0.8,8.,0.8
1979-07-16 15:01:24.360 ,2,0,4.,0.8,0.,0.8,0.,0.8,14.,0.8
1979-07-16 15:01:25.160 ,2,0,5.,0.8,0.,0.8,0.,0.8,12.,0.8
1979-07-16 15:01:25.960 ,2,0,3.,0.8,0.,0.8,0.,0.8,10.,0.8
1979-07-16 15:01:26.760 ,2,0,8.,0.8,0.,0.8,0.,0.8,15.,0.8
1979-07-16 15:01:27.560 ,2,0,3.,0.8,0.,0.8,0.,0.8,17.,0.8
1979-07-16 15:01:28.360 ,2,0,4.,0.8,0.,0.8,0.,0.8,15.,0.8
1979-07-16 15:01:29.160 ,2,0,3.,0.8,0.,0.8,0.,0.8,18.,0.8
1979-07-16 15:01:29.960 ,2,0,2.,0.8,2.,0.8,0.,0.8,16.,0.8
1979-07-16 15:01:30.760 ,2,0,2.,0.8,0.,0.8,0.,0.8,13.,0.8
1979-07-16 15:01:31.560 ,2,0,2.,0.8,0.,0.8,0.,0.8,23.,0.8
1979-07-16 15:01:32.360 ,2,0,4.,0.8,0.,0.8,0.,0.8,18.,0.8
1979-07-16 15:01:33.160 ,2,0,5.,0.8,1.,0.8,0.,0.8,15.,0.8
1979-07-16 15:01:33.960 ,2,0,4.,0.8,0.,0.8,0.,0.8,27.,0.8
1979-07-16 15:01:34.760 ,3,0,3.,0.8,0.,0.8,0.,0.8,21.,0.8
1979-07-16 15:01:35.560 ,3,0,2.,0.8,0.,0.8,0.,0.8,9.,0.8
1979-07-16 15:01:36.360 ,3,0,5.,0.8,0.,0.8,0.,0.8,18.,0.8
1979-07-16 15:01:37.160 ,3,0,5.,0.8,0.,0.8,0.,0.8,15.,0.8
1979-07-16 15:01:37.960 ,3,0,4.,0.8,0.,0.8,0.,0.8,11.,0.8
1979-07-16 15:01:38.760 ,3,0,3.,0.8,0.,0.8,0.,0.8,17.,0.8
1979-07-16 15:01:39.560 ,3,0,3.,0.8,0.,0.8,0.,0.8,14.,0.8
1979-07-16 15:01:40.360 ,3,0,3.,0.8,0.,0.8,0.,0.8,27.,0.8
1979-07-16 15:01:41.160 ,3,0,8.,0.8,0.,0.8,0.,0.8,9.,0.8
1979-07-16 15:01:41.960 ,3,0,12.,0.8,0.,0.8,0.,0.8,11.,0.8
1979-07-16 15:01:42.760 ,3,0,8.,0.8,0.,0.8,0.,0.8,10.,0.8
1979-07-16 15:01:43.560 ,3,0,8.,0.8,0.,0.8,0.,0.8,14.,0.8
1979-07-16 15:01:44.360 ,3,0,6.,0.8,0.,0.8,0.,0.8,9.,0.8
1979-07-16 15:01:45.160 ,3,0,8.,0.8,0.,0.8,0.,0.8,14.,0.8
1979-07-16 15:01:45.960 ,3,0,5.,0.8,0.,0.8,0.,0.8,14.,0.8
1979-07-16 15:01:46.760 ,3,0,4.,0.8,0.,0.8,0.,0.8,19.,0.8
1979-07-16 15:01:47.560 ,3,0,8.,0.8,0.,0.8,0.,0.8,9.,0.8
1979-07-16 15:01:48.360 ,3,0,9.,0.8,0.,0.8,0.,0.8,11.,0.8
1979-07-16 15:01:49.160 ,3,0,6.,0.8,0.,0.8,0.,0.8,14.,0.8
1979-07-16 15:01:49.960 ,3,0,10.,0.8,0.,0.8,0.,0.8,16.,0.8
1979-07-16 15:01:50.760 ,3,0,18.,0.8,0.,0.8,0.,0.8,13.,0.8
1979-07-16 15:01:51.560 ,3,0,9.,0.8,0.,0.8,0.,0.8,15.,0.8
1979-07-16 15:01:52.360 ,3,0,4.,0.8,0.,0.8,0.,0.8,14.,0.8
1979-07-16 15:01:53.160 ,3,0,9.,0.8,0.,0.8,0.,0.8,7.,0.8
1979-07-16 15:01:53.960 ,3,0,14.,0.8,0.,0.8,0.,0.8,10.,0.8
1979-07-16 15:01:54.760 ,3,0,9.,0.8,0.,0.8,0.,0.8,13.,0.8
1979-07-16 15:01:55.560 ,3,0,11.,0.8,0.,0.8,0.,0.8,16.,0.8
1979-07-16 15:01:56.360 ,3,0,8.,0.8,0.,0.8,0.,0.8,18.,0.8
1979-07-16 15:01:57.160 ,3,0,11.,0.8,0.,0.8,1.,0.8,16.,0.8
1979-07-16 15:01:57.960 ,3,0,6.,0.8,0.,0.8,0.,0.8,12.,0.8
1979-07-16 15:01:58.760 ,3,0,11.,0.8,0.,0.8,0.,0.8,14.,0.8
1979-07-16 15:01:59.560 ,3,0,11.,0.8,0.,0.8,0.,0.8,14.,0.8
1979-07-16 15:02:00.360 ,3,0,10.,0.8,0.,0.8,1.,0.8,11.,0.8
1979-07-16 15:02:01.160 ,3,0,6.,0.8,1.,0.8,0.,0.8,13.,0.8
1979-07-16 15:02:01.960 ,3,0,7.,0.8,0.,0.8,0.,0.8,25.,0.8
1979-07-16 15:02:02.760 ,3,0,16.,0.8,0.,0.8,0.,0.8,15.,0.8
1979-07-16 15:02:03.560 ,3,0,11.,0.8,0.,0.8,0.,0.8,7.,0.8
1979-07-16 15:02:04.360 ,3,0,9.,0.8,0.,0.8,0.,0.8,9.,0.8
1979-07-16 15:02:05.160 ,3,0,10.,0.8,0.,0.8,0.,0.8,10.,0.8
1979-07-16 15:02:05.960 ,3,0,12.,0.8,0.,0.8,0.,0.8,16.,0.8
1979-07-16 15:02:06.760 ,3,0,6.,0.8,0.,0.8,0.,0.8,10.,0.8
1979-07-16 15:02:07.560 ,3,0,10.,0.8,0.,0.8,0.,0.8,6.,0.8
1979-07-16 15:02:08.360 ,3,0,15.,0.8,0.,0.8,0.,0.8,14.,0.8
1979-07-16 15:02:09.160 ,3,0,11.,0.8,0.,0.8,0.,0.8,12.,0.8
1979-07-16 15:02:09.960 ,3,0,9.,0.8,0.,0.8,0.,0.8,17.,0.8
1979-07-16 15:02:10.760 ,3,0,8.,0.8,0.,0.8,0.,0.8,15.,0.8
1979-07-16 15:02:11.560 ,3,0,11.,0.8,0.,0.8,0.,0.8,8.,0.8
1979-07-16 15:02:12.360 ,3,0,6.,0.8,0.,0.8,0.,0.8,16.,0.8
1979-07-16 15:02:13.160 ,3,0,12.,0.8,0.,0.8,0.,0.8,14.,0.8
1979-07-16 15:02:13.960 ,3,0,10.,0.8,0.,0.8,0.,0.8,14.,0.8
1979-07-16 15:02:14.760 ,3,0,12.,0.8,0.,0.8,0.,0.8,15.,0.8
1979-07-16 15:02:15.560 ,3,0,9.,0.8,0.,0.8,0.,0.8,12.,0.8
1979-07-16 15:02:16.360 ,3,0,3.,0.8,0.,0.8,0.,0.8,13.,0.8
1979-07-16 15:02:17.160 ,3,0,14.,0.8,0.,0.8,0.,0.8,16.,0.8
1979-07-16 15:02:17.960 ,3,0,12.,0.8,0.,0.8,0.,0.8,14.,0.8
1979-07-16 15:02:18.760 ,3,0,9.,0.8,0.,0.8,0.,0.8,9.,0.8
1979-07-16 15:02:19.560 ,3,0,5.,0.8,0.,0.8,0.,0.8,11.,0.8
1979-07-16 15:02:20.360 ,3,0,10.,0.8,0.,0.8,0.,0.8,10.,0.8
1979-07-16 15:02:21.160 ,3,0,10.,0.8,0.,0.8,0.,0.8,10.,0.8
1979-07-16 15:02:21.960 ,3,0,11.,0.8,0.,0.8,0.,0.8,10.,0.8
1979-07-16 15:02:22.760 ,4,0,9.,0.8,0.,0.8,0.,0.8,16.,0.8
1979-07-16 15:02:23.560 ,4,0,15.,0.8,0.,0.8,0.,0.8,8.,0.8
1979-07-16 15:02:24.360 ,4,0,8.,0.8,0.,0.8,0.,0.8,21.,0.8
1979-07-16 15:02:25.160 ,4,0,10.,0.8,0.,0.8,0.,0.8,12.,0.8
1979-07-16 15:02:25.960 ,4,0,15.,0.8,0.,0.8,0.,0.8,11.,0.8
1979-07-16 15:02:26.760 ,4,0,9.,0.8,0.,0.8,0.,0.8,11.,0.8
1979-07-16 15:02:27.560 ,4,0,12.,0.8,0.,0.8,0.,0.8,18.,0.8
1979-07-16 15:02:28.360 ,4,0,11.,0.8,0.,0.8,0.,0.8,14.,0.8
1979-07-16 15:02:29.160 ,4,0,3.,0.8,0.,0.8,0.,0.8,16.,0.8
1979-07-16 15:02:29.960 ,4,0,1.,0.8,0.,0.8,0.,0.8,16.,0.8
1979-07-16 15:02:30.760 ,4,0,0.,0.8,0.,0.8,0.,0.8,14.,0.8
1979-07-16 15:02:31.560 ,4,0,0.,0.8,0.,0.8,0.,0.8,14.,0.8
1979-07-16 15:02:32.360 ,4,0,1.,0.8,0.,0.8,0.,0.8,18.,0.8
1979-07-16 15:02:33.160 ,4,0,0.,0.8,0.,0.8,0.,0.8,14.,0.8
1979-07-16 15:02:33.960 ,4,0,0.,0.8,0.,0.8,0.,0.8,23.,0.8
1979-07-16 15:02:34.760 ,4,0,0.,0.8,0.,0.8,0.,0.8,18.,0.8
1979-07-16 15:02:35.560 ,4,0,0.,0.8,0.,0.8,0.,0.8,12.,0.8
1979-07-16 15:02:36.360 ,4,0,0.,0.8,0.,0.8,0.,0.8,11.,0.8
1979-07-16 15:02:37.160 ,4,0,0.,0.8,0.,0.8,0.,0.8,15.,0.8
1979-07-16 15:02:37.960 ,4,0,0.,0.8,0.,0.8,0.,0.8,20.,0.8
1979-07-16 15:02:38.760 ,4,0,0.,0.8,0.,0.8,0.,0.8,16.,0.8
1979-07-16 15:02:39.560 ,4,0,0.,0.8,0.,0.8,0.,0.8,21.,0.8
1979-07-16 15:02:40.360 ,4,0,0.,0.8,0.,0.8,0.,0.8,15.,0.8
1979-07-16 15:02:41.160 ,4,0,0.,0.8,0.,0.8,0.,0.8,16.,0.8
1979-07-16 15:02:41.960 ,4,0,0.,0.8,0.,0.8,0.,0.8,15.,0.8
1979-07-16 15:02:42.760 ,4,0,0.,0.8,0.,0.8,0.,0.8,16.,0.8
1979-07-16 15:02:43.560 ,4,0,0.,0.8,0.,0.8,0.,0.8,18.,0.8
1979-07-16 15:02:44.360 ,4,0,0.,0.8,0.,0.8,0.,0.8,15.,0.8
1979-07-16 15:02:45.160 ,4,0,0.,0.8,0.,0.8,0.,0.8,16.,0.8
1979-07-16 15:02:45.960 ,4,0,0.,0.8,0.,0.8,0.,0.8,18.,0.8
1979-07-16 15:02:46.760 ,4,0,0.,0.8,0.,0.8,0.,0.8,11.,0.8
1979-07-16 15:02:47.560 ,4,0,0.,0.8,0.,0.8,0.,0.8,24.,0.8
1979-07-16 15:02:48.360 ,4,0,0.,0.8,0.,0.8,0.,0.8,17.,0.8
1979-07-16 15:02:49.160 ,4,0,0.,0.8,0.,0.8,0.,0.8,21.,0.8
1979-07-16 15:02:49.960 ,4,0,0.,0.8,0.,0.8,0.,0.8,15.,0.8
1979-07-16 15:02:50.760 ,4,0,0.,0.8,0.,0.8,0.,0.8,18.,0.8
1979-07-16 15:02:51.560 ,4,0,0.,0.8,0.,0.8,0.,0.8,12.,0.8
1979-07-16 15:02:52.360 ,4,0,0.,0.8,0.,0.8,0.,0.8,18.,0.8
1979-07-16 15:02:53.160 ,4,0,0.,0.8,0.,0.8,0.,0.8,10.,0.8
1979-07-16 15:02:53.960 ,4,0,0.,0.8,0.,0.8,0.,0.8,12.,0.8
1979-07-16 15:02:54.760 ,4,0,0.,0.8,0.,0.8,0.,0.8,14.,0.8
1979-07-16 15:02:55.560 ,4,0,0.,0.8,0.,0.8,0.,0.8,13.,0.8
1979-07-16 15:02:56.360 ,4,0,0.,0.8,0.,0.8,0.,0.8,18.,0.8
1979-07-16 15:02:57.160 ,4,0,0.,0.8,0.,0.8,0.,0.8,14.,0.8
1979-07-16 15:02:57.960 ,4,0,0.,0.8,0.,0.8,0.,0.8,13.,0.8
1979-07-16 15:02:58.760 ,4,0,0.,0.8,0.,0.8,0.,0.8,16.,0.8
1979-07-16 15:02:59.560 ,4,0,0.,0.8,0.,0.8,0.,0.8,10.,0.8
1979-07-16 15:03:00.360 ,4,0,0.,0.8,0.,0.8,0.,0.8,10.,0.8
1979-07-16 15:03:01.160 ,4,0,0.,0.8,0.,0.8,0.,0.8,15.,0.8
1979-07-16 15:03:01.960 ,4,0,0.,0.8,0.,0.8,0.,0.8,11.,0.8
1979-07-16 15:03:02.760 ,4,0,0.,0.8,0.,0.8,0.,0.8,16.,0.8
1979-07-16 15:03:03.560 ,4,0,0.,0.8,0.,0.8,0.,0.8,16.,0.8
1979-07-16 15:03:04.360 ,4,0,0.,0.8,0.,0.8,0.,0.8,11.,0.8
1979-07-16 15:03:05.160 ,4,0,0.,0.8,0.,0.8,0.,0.8,13.,0.8
1979-07-16 15:03:05.960 ,4,0,0.,0.8,0.,0.8,0.,0.8,16.,0.8
1979-07-16 15:03:06.760 ,4,0,0.,0.8,0.,0.8,1.,0.8,6.,0.8
1979-07-16 15:03:07.560 ,4,0,0.,0.8,0.,0.8,0.,0.8,14.,0.8
1979-07-16 15:03:08.360 ,4,0,0.,0.8,0.,0.8,0.,0.8,16.,0.8
1979-07-16 15:03:09.160 ,4,0,0.,0.8,0.,0.8,0.,0.8,13.,0.8
1979-07-16 15:03:09.960 ,4,0,0.,0.8,0.,0.8,0.,0.8,11.,0.8
1979-07-16 15:03:58.760 ,0,0,0.,0.8,0.,0.8,0.,0.8,9.,0.8
1979-07-16 15:03:59.560 ,0,0,0.,0.8,0.,0.8,0.,0.8,12.,0.8
1979-07-16 15:04:00.360 ,0,0,0.,0.8,0.,0.8,0.,0.8,18.,0.8
1979-07-16 15:04:01.160 ,0,0,0.,0.8,0.,0.8,0.,0.8,16.,0.8
1979-07-16 15:04:01.960 ,0,0,0.,0.8,0.,0.8,0.,0.8,13.,0.8
1979-07-16 15:04:02.760 ,0,0,0.,0.8,0.,0.8,0.,0.8,9.,0.8
1979-07-16 15:04:03.560 ,0,0,0.,0.8,0.,0.8,0.,0.8,12.,0.8
1979-07-16 15:04:04.360 ,0,0,0.,0.8,0.,0.8,0.,0.8,9.,0.8
1979-07-16 15:04:05.160 ,0,0,0.,0.8,0.,0.8,0.,0.8,8.,0.8
1979-07-16 15:04:05.960 ,0,0,0.,0.8,0.,0.8,0.,0.8,14.,0.8
1979-07-16 15:04:06.760 ,0,0,0.,0.8,0.,0.8,0.,0.8,10.,0.8
1979-07-16 15:04:07.560 ,0,0,0.,0.8,0.,0.8,0.,0.8,10.,0.8
1979-07-16 15:04:08.360 ,0,0,0.,0.8,0.,0.8,0.,0.8,16.,0.8
1979-07-16 15:04:09.160 ,0,0,0.,0.8,0.,0.8,0.,0.8,14.,0.8
1979-07-16 15:04:09.960 ,0,0,0.,0.8,0.,0.8,0.,0.8,11.,0.8
1979-07-16 15:04:10.760 ,0,0,0.,0.8,0.,0.8,0.,0.8,13.,0.8
1979-07-16 15:04:11.560 ,0,0,0.,0.8,0.,0.8,0.,0.8,11.,0.8
1979-07-16 15:04:12.360 ,0,0,0.,0.8,1.,0.8,0.,0.8,7.,0.8
1979-07-16 15:04:13.160 ,0,0,0.,0.8,0.,0.8,0.,0.8,10.,0.8
1979-07-16 15:04:13.960 ,0,0,0.,0.8,0.,0.8,0.,0.8,14.,0.8
1979-07-16 15:04:14.760 ,0,0,0.,0.8,0.,0.8,0.,0.8,7.,0.8
1979-07-16 15:04:15.560 ,0,0,0.,0.8,0.,0.8,0.,0.8,14.,0.8
1979-07-16 15:04:16.360 ,0,0,0.,0.8,0.,0.8,0.,0.8,11.,0.8
1979-07-16 15:04:17.160 ,0,0,0.,0.8,0.,0.8,0.,0.8,9.,0.8
1979-07-16 15:04:17.960 ,0,0,0.,0.8,0.,0.8,0.,0.8,9.,0.8
1979-07-16 15:04:18.760 ,0,0,0.,0.8,0.,0.8,0.,0.8,12.,0.8
1979-07-16 15:04:19.560 ,0,0,0.,0.8,0.,0.8,0.,0.8,10.,0.8
1979-07-16 15:04:20.360 ,0,0,0.,0.8,0.,0.8,0.,0.8,9.,0.8
1979-07-16 15:04:21.160 ,0,0,0.,0.8,0.,0.8,0.,0.8,16.,0.8
1979-07-16 15:04:21.960 ,0,0,0.,0.8,0.,0.8,0.,0.8,14.,0.8
1979-07-16 15:04:22.760 ,0,0,0.,0.8,0.,0.8,0.,0.8,9.,0.8
1979-07-16 15:04:23.560 ,0,0,0.,0.8,0.,0.8,0.,0.8,7.,0.8
1979-07-16 15:04:24.360 ,0,0,0.,0.8,0.,0.8,0.,0.8,10.,0.8
1979-07-16 15:04:25.160 ,0,0,2.,0.8,0.,0.8,0.,0.8,6.,0.8
1979-07-16 15:04:25.960 ,0,0,0.,0.8,0.,0.8,0.,0.8,11.,0.8
1979-07-16 15:04:26.760 ,0,0,1.,0.8,0.,0.8,0.,0.8,10.,0.8
1979-07-16 15:04:27.560 ,0,0,1.,0.8,0.,0.8,0.,0.8,7.,0.8
1979-07-16 15:04:28.360 ,0,0,0.,0.8,0.,0.8,0.,0.8,5.,0.8
1979-07-16 15:04:29.160 ,0,0,1.,0.8,0.,0.8,0.,0.8,10.,0.8
1979-07-16 15:04:29.960 ,0,0,0.,0.8,0.,0.8,0.,0.8,6.,0.8
1979-07-16 15:04:30.760 ,0,0,0.,0.8,1.,0.8,0.,0.8,6.,0.8
1979-07-16 15:04:31.560 ,0,0,0.,0.8,0.,0.8,0.,0.8,4.,0.8
1979-07-16 15:04:32.360 ,0,0,0.,0.8,0.,0.8,0.,0.8,7.,0.8
1979-07-16 15:04:33.160 ,0,0,0.,0.8,0.,0.8,1.,0.8,15.,0.8
1979-07-16 15:04:33.960 ,0,0,0.,0.8,0.,0.8,0.,0.8,21.,0.8
1979-07-16 15:04:34.760 ,0,0,0.,0.8,0.,0.8,0.,0.8,6.,0.8
1979-07-16 15:04:35.560 ,0,0,0.,0.8,0.,0.8,0.,0.8,14.,0.8
1979-07-16 15:04:36.360 ,0,0,0.,0.8,0.,0.8,0.,0.8,13.,0.8
1979-07-16 15:04:37.160 ,0,0,0.,0.8,0.,0.8,0.,0.8,10.,0.8
1979-07-16 15:04:37.960 ,0,0,0.,0.8,0.,0.8,0.,0.8,9.,0.8
1979-07-16 15:04:38.760 ,0,0,1.,0.8,0.,0.8,0.,0.8,4.,0.8
1979-07-16 15:04:39.560 ,0,0,0.,0.8,0.,0.8,0.,0.8,7.,0.8
1979-07-16 15:04:40.360 ,0,0,0.,0.8,1.,0.8,0.,0.8,11.,0.8
1979-07-16 15:04:41.160 ,0,0,0.,0.8,0.,0.8,0.,0.8,11.,0.8
1979-07-16 15:04:41.960 ,0,0,0.,0.8,1.,0.8,0.,0.8,7.,0.8
1979-07-16 15:04:42.760 ,0,0,0.,0.8,0.,0.8,0.,0.8,14.,0.8
1979-07-16 15:04:43.560 ,0,0,0.,0.8,0.,0.8,0.,0.8,9.,0.8
1979-07-16 15:04:44.360 ,0,0,0.,0.8,0.,0.8,0.,0.8,8.,0.8
1979-07-16 15:04:45.160 ,0,0,1.,0.8,0.,0.8,0.,0.8,7.,0.8
1979-07-16 15:04:45.960 ,0,0,0.,0.8,0.,0.8,0.,0.8,11.,0.8
1979-07-16 15:04:46.760 ,7,0,0.,0.8,1.,0.8,0.,0.8,8.,0.8
1979-07-16 15:04:47.560 ,7,0,0.,0.8,0.,0.8,0.,0.8,7.,0.8
1979-07-16 15:04:48.360 ,7,0,0.,0.8,0.,0.8,0.,0.8,11.,0.8
1979-07-16 15:04:49.160 ,7,0,0.,0.8,0.,0.8,0.,0.8,9.,0.8
1979-07-16 15:04:49.960 ,7,0,1.,0.8,0.,0.8,0.,0.8,11.,0.8
1979-07-16 15:04:50.760 ,7,0,0.,0.8,0.,0.8,0.,0.8,14.,0.8
1979-07-16 15:04:51.560 ,7,0,0.,0.8,0.,0.8,0.,0.8,9.,0.8
1979-07-16 15:04:52.360 ,7,0,0.,0.8,0.,0.8,0.,0.8,11.,0.8
1979-07-16 15:04:53.160 ,7,0,0.,0.8,0.,0.8,0.,0.8,11.,0.8
1979-07-16 15:04:53.960 ,7,0,0.,0.8,0.,0.8,0.,0.8,15.,0.8
1979-07-16 15:04:54.760 ,7,0,0.,0.8,0.,0.8,0.,0.8,18.,0.8
1979-07-16 15:04:55.560 ,7,0,0.,0.8,0.,0.8,0.,0.8,20.,0.8
1979-07-16 15:04:56.360 ,7,0,0.,0.8,0.,0.8,0.,0.8,12.,0.8
1979-07-16 15:04:57.160 ,7,0,0.,0.8,0.,0.8,0.,0.8,11.,0.8
1979-07-16 15:04:57.960 ,7,0,0.,0.8,0.,0.8,0.,0.8,14.,0.8
1979-07-16 15:04:58.760 ,7,0,0.,0.8,0.,0.8,0.,0.8,7.,0.8
1979-07-16 15:04:59.560 ,7,0,0.,0.8,0.,0.8,0.,0.8,5.,0.8
1979-07-16 15:05:00.360 ,7,0,0.,0.8,0.,0.8,0.,0.8,9.,0.8
1979-07-16 15:05:01.160 ,7,0,0.,0.8,0.,0.8,0.,0.8,11.,0.8
1979-07-16 15:05:01.960 ,7,0,0.,0.8,0.,0.8,0.,0.8,15.,0.8
1979-07-16 15:05:02.760 ,7,0,0.,0.8,0.,0.8,0.,0.8,5.,0.8
1979-07-16 15:05:03.560 ,7,0,0.,0.8,0.,0.8,0.,0.8,8.,0.8
1979-07-16 15:05:04.360 ,7,0,0.,0.8,0.,0.8,0.,0.8,7.,0.8
1979-07-16 15:05:05.160 ,7,0,0.,0.8,0.,0.8,0.,0.8,8.,0.8
1979-07-16 15:05:05.960 ,7,0,0.,0.8,0.,0.8,0.,0.8,9.,0.8
1979-07-16 15:05:06.760 ,7,0,0.,0.8,0.,0.8,0.,0.8,8.,0.8
1979-07-16 15:05:07.560 ,7,0,0.,0.8,0.,0.8,0.,0.8,10.,0.8
1979-07-16 15:05:08.360 ,7,0,0.,0.8,0.,0.8,0.,0.8,7.,0.8
1979-07-16 15:05:09.160 ,7,0,0.,0.8,0.,0.8,0.,0.8,9.,0.8
1979-07-16 15:05:09.960 ,7,0,0.,0.8,0.,0.8,0.,0.8,11.,0.8
1979-07-16 15:05:10.760 ,7,0,0.,0.8,0.,0.8,0.,0.8,12.,0.8
1979-07-16 15:05:11.560 ,7,0,0.,0.8,0.,0.8,0.,0.8,11.,0.8
1979-07-16 15:05:12.360 ,7,0,0.,0.8,0.,0.8,0.,0.8,7.,0.8
1979-07-16 15:05:13.160 ,7,0,0.,0.8,0.,0.8,0.,0.8,10.,0.8
1979-07-16 15:05:13.960 ,7,0,0.,0.8,0.,0.8,0.,0.8,10.,0.8
1979-07-16 15:05:14.760 ,7,0,0.,0.8,0.,0.8,0.,0.8,11.,0.8
1979-07-16 15:05:15.560 ,7,0,0.,0.8,0.,0.8,0.,0.8,12.,0.8
1979-07-16 15:05:16.360 ,7,0,0.,0.8,0.,0.8,0.,0.8,7.,0.8
1979-07-16 15:05:17.160 ,7,0,0.,0.8,0.,0.8,0.,0.8,13.,0.8
1979-07-16 15:05:17.960 ,7,0,0.,0.8,0.,0.8,0.,0.8,6.,0.8
1979-07-16 15:05:18.760 ,7,0,0.,0.8,0.,0.8,0.,0.8,9.,0.8
1979-07-16 15:05:19.560 ,7,0,0.,0.8,0.,0.8,0.,0.8,9.,0.8
1979-07-16 15:05:20.360 ,7,0,0.,0.8,0.,0.8,0.,0.8,7.,0.8
1979-07-16 15:05:21.160 ,7,0,0.,0.8,0.,0.8,0.,0.8,5.,0.8
1979-07-16 15:05:21.960 ,7,0,0.,0.8,0.,0.8,0.,0.8,14.,0.8
1979-07-16 15:05:22.760 ,7,0,0.,0.8,0.,0.8,0.,0.8,12.,0.8
1979-07-16 15:05:23.560 ,7,0,0.,0.8,0.,0.8,0.,0.8,15.,0.8
1979-07-16 15:05:24.360 ,7,0,0.,0.8,0.,0.8,0.,0.8,7.,0.8
1979-07-16 15:05:25.160 ,7,0,0.,0.8,0.,0.8,0.,0.8,14.,0.8
1979-07-16 15:05:25.960 ,7,0,0.,0.8,0.,0.8,0.,0.8,16.,0.8
1979-07-16 15:05:26.760 ,7,0,0.,0.8,0.,0.8,0.,0.8,16.,0.8
1979-07-16 15:05:27.560 ,7,0,0.,0.8,0.,0.8,0.,0.8,17.,0.8
1979-07-16 15:05:28.360 ,7,0,0.,0.8,0.,0.8,0.,0.8,5.,0.8
1979-07-16 15:05:29.160 ,7,0,0.,0.8,0.,0.8,0.,0.8,10.,0.8
1979-07-16 15:05:29.960 ,7,0,0.,0.8,0.,0.8,0.,0.8,9.,0.8
1979-07-16 15:05:30.760 ,7,0,0.,0.8,0.,0.8,0.,0.8,8.,0.8
1979-07-16 15:05:31.560 ,7,0,0.,0.8,0.,0.8,0.,0.8,13.,0.8
1979-07-16 15:05:32.360 ,7,0,0.,0.8,0.,0.8,0.,0.8,11.,0.8
1979-07-16 15:05:33.160 ,7,0,0.,0.8,0.,0.8,0.,0.8,10.,0.8
1979-07-16 15:05:33.960 ,7,0,0.,0.8,0.,0.8,0.,0.8,9.,0.8
1979-07-16 15:05:34.760 ,7,0,0.,0.8,0.,0.8,0.,0.8,9.,0.8
1979-07-16 15:05:35.560 ,7,0,0.,0.8,0.,0.8,0.,0.8,17.,0.8
1979-07-16 15:05:36.360 ,7,0,0.,0.8,0.,0.8,0.,0.8,7.,0.8
1979-07-16 15:05:37.160 ,7,0,0.,0.8,0.,0.8,0.,0.8,15.,0.8
1979-07-16 15:05:37.960 ,7,0,0.,0.8,0.,0.8,0.,0.8,8.,0.8
1979-07-16 15:05:38.760 ,7,0,0.,0.8,0.,0.8,0.,0.8,13.,0.8
1979-07-16 15:05:39.560 ,7,0,0.,0.8,0.,0.8,0.,0.8,6.,0.8
1979-07-16 15:05:40.360 ,7,0,0.,0.8,0.,0.8,0.,0.8,8.,0.8
1979-07-16 15:05:41.160 ,7,0,0.,0.8,0.,0.8,0.,0.8,14.,0.8
1979-07-16 15:05:41.960 ,7,0,0.,0.8,0.,0.8,0.,0.8,8.,0.8
1979-07-16 15:05:42.760 ,7,0,0.,0.8,0.,0.8,0.,0.8,13.,0.8
1979-07-16 15:05:43.560 ,7,0,0.,0.8,0.,0.8,0.,0.8,11.,0.8
1979-07-16 15:05:44.360 ,7,0,0.,0.8,0.,0.8,0.,0.8,8.,0.8
1979-07-16 15:05:45.160 ,7,0,0.,0.8,0.,0.8,0.,0.8,12.,0.8
1979-07-16 15:05:45.960 ,7,0,0.,0.8,0.,0.8,0.,0.8,8.,0.8
1979-07-16 15:05:46.760 ,7,0,0.,0.8,0.,0.8,0.,0.8,13.,0.8
1979-07-16 15:05:47.560 ,7,0,0.,0.8,0.,0.8,0.,0.8,14.,0.8
1979-07-16 15:05:48.360 ,7,0,0.,0.8,0.,0.8,0.,0.8,13.,0.8
1979-07-16 15:05:49.160 ,7,0,0.,0.8,0.,0.8,0.,0.8,3.,0.8
1979-07-16 15:05:49.960 ,7,0,0.,0.8,0.,0.8,0.,0.8,9.,0.8
1979-07-16 15:05:50.760 ,7,0,1.,0.8,0.,0.8,0.,0.8,15.,0.8
1979-07-16 15:05:51.560 ,7,0,0.,0.8,0.,0.8,0.,0.8,10.,0.8
1979-07-16 15:05:52.360 ,7,0,0.,0.8,0.,0.8,0.,0.8,6.,0.8
1979-07-16 15:05:53.160 ,7,0,0.,0.8,0.,0.8,0.,0.8,8.,0.8
1979-07-16 15:05:53.960 ,7,0,0.,0.8,0.,0.8,0.,0.8,9.,0.8
1979-07-16 15:05:54.760 ,7,0,0.,0.8,0.,0.8,0.,0.8,8.,0.8
1979-07-16 15:05:55.560 ,7,0,0.,0.8,0.,0.8,0.,0.8,15.,0.8
1979-07-16 15:05:56.360 ,7,0,0.,0.8,0.,0.8,0.,0.8,15.,0.8
1979-07-16 15:05:57.160 ,7,0,0.,0.8,0.,0.8,0.,0.8,8.,0.8
1979-07-16 15:05:57.960 ,7,0,0.,0.8,0.,0.8,0.,0.8,11.,0.8
1979-07-16 15:05:58.760 ,7,0,0.,0.8,0.,0.8,0.,0.8,8.,0.8
1979-07-16 15:05:59.560 ,7,0,0.,0.8,0.,0.8,0.,0.8,11.,0.8
1979-07-16 15:06:00.360 ,7,0,0.,0.8,0.,0.8,0.,0.8,10.,0.8
1979-07-16 15:06:01.160 ,7,0,1.,0.8,0.,0.8,0.,0.8,11.,0.8
1979-07-16 15:06:01.960 ,7,0,0.,0.8,0.,0.8,0.,0.8,14.,0.8
1979-07-16 15:06:02.760 ,7,0,0.,0.8,0.,0.8,0.,0.8,8.,0.8
1979-07-16 15:06:03.560 ,7,0,0.,0.8,0.,0.8,0.,0.8,11.,0.8
1979-07-16 15:06:04.360 ,7,0,0.,0.8,0.,0.8,0.,0.8,13.,0.8
1979-07-16 15:06:05.160 ,7,0,0.,0.8,0.,0.8,0.,0.8,11.,0.8
1979-07-16 15:06:05.960 ,7,0,0.,0.8,0.,0.8,0.,0.8,9.,0.8
1979-07-16 15:06:06.760 ,7,0,0.,0.8,0.,0.8,0.,0.8,11.,0.8
1979-07-16 15:06:07.560 ,7,0,0.,0.8,0.,0.8,0.,0.8,16.,0.8
1979-07-16 15:06:08.360 ,7,0,0.,0.8,0.,0.8,0.,0.8,17.,0.8
1979-07-16 15:06:09.160 ,7,0,0.,0.8,0.,0.8,0.,0.8,15.,0.8
1979-07-16 15:06:09.960 ,7,0,0.,0.8,0.,0.8,0.,0.8,13.,0.8
1979-07-16 15:06:10.760 ,7,0,0.,0.8,0.,0.8,0.,0.8,10.,0.8
1979-07-16 15:06:11.560 ,7,0,0.,0.8,0.,0.8,0.,0.8,15.,0.8
1979-07-16 15:06:12.360 ,7,0,0.,0.8,0.,0.8,0.,0.8,7.,0.8
1979-07-16 15:06:13.160 ,7,0,0.,0.8,0.,0.8,0.,0.8,16.,0.8
1979-07-16 15:06:13.960 ,7,0,0.,0.8,0.,0.8,0.,0.8,10.,0.8
1979-07-16 15:06:14.760 ,7,0,0.,0.8,0.,0.8,0.,0.8,17.,0.8
1979-07-16 15:06:15.560 ,7,0,0.,0.8,0.,0.8,0.,0.8,19.,0.8
1979-07-16 15:06:16.360 ,7,0,0.,0.8,0.,0.8,0.,0.8,11.,0.8
1979-07-16 15:06:17.160 ,7,0,0.,0.8,0.,0.8,0.,0.8,17.,0.8
1979-07-16 15:06:17.960 ,7,0,0.,0.8,0.,0.8,0.,0.8,11.,0.8
1979-07-16 15:06:18.760 ,7,0,0.,0.8,0.,0.8,0.,0.8,10.,0.8
1979-07-16 15:06:19.560 ,7,0,0.,0.8,0.,0.8,0.,0.8,16.,0.8
1979-07-16 15:06:20.360 ,7,0,0.,0.8,0.,0.8,0.,0.8,13.,0.8
1979-07-16 15:06:21.160 ,7,0,0.,0.8,0.,0.8,0.,0.8,16.,0.8
1979-07-16 15:06:21.960 ,7,0,0.,0.8,0.,0.8,0.,0.8,7.,0.8
1979-07-16 15:06:22.760 ,6,0,0.,0.8,0.,0.8,0.,0.8,11.,0.8
1979-07-16 15:06:23.560 ,6,0,0.,0.8,0.,0.8,0.,0.8,8.,0.8
1979-07-16 15:06:24.360 ,6,0,0.,0.8,0.,0.8,0.,0.8,12.,0.8
1979-07-16 15:06:25.160 ,6,0,0.,0.8,0.,0.8,0.,0.8,15.,0.8
1979-07-16 15:06:25.960 ,6,0,0.,0.8,0.,0.8,0.,0.8,18.,0.8
1979-07-16 15:06:26.760 ,6,0,0.,0.8,0.,0.8,0.,0.8,15.,0.8
1979-07-16 15:06:27.560 ,6,0,0.,0.8,0.,0.8,0.,0.8,13.,0.8
1979-07-16 15:06:28.360 ,6,0,0.,0.8,0.,0.8,0.,0.8,13.,0.8
1979-07-16 15:06:29.160 ,6,0,0.,0.8,0.,0.8,0.,0.8,12.,0.8
1979-07-16 15:06:29.960 ,6,0,0.,0.8,0.,0.8,0.,0.8,13.,0.8
1979-07-16 15:06:30.760 ,6,0,0.,0.8,0.,0.8,0.,0.8,14.,0.8
1979-07-16 15:06:31.560 ,6,0,0.,0.8,0.,0.8,0.,0.8,9.,0.8
1979-07-16 15:06:32.360 ,6,0,1.,0.8,0.,0.8,0.,0.8,18.,0.8
1979-07-16 15:06:33.160 ,6,0,0.,0.8,0.,0.8,0.,0.8,12.,0.8
1979-07-16 15:06:33.960 ,6,0,0.,0.8,0.,0.8,0.,0.8,14.,0.8
1979-07-16 15:06:34.760 ,6,0,0.,0.8,0.,0.8,0.,0.8,14.,0.8
1979-07-16 15:06:35.560 ,6,0,0.,0.8,0.,0.8,0.,0.8,9.,0.8